Wetterdaten: Woche 29.11.10 - 05.12.10 (KW48)
Datum Zeit Temp. Innen Temp. Aussen UV X Diff Temp. Feuchte Inne Feuchte Auss Sonnenschein Luftdruck Regen ab 0,1 Wind Sonnenschein T Regendauer Windben
29.11.2010 00:00 11,2 C -1,6 C 0,0 UV-I 0,0 C 44 % 90 % 0 % 1003,5 hPa 0,0 l/m 2,5 km/h (1 Bft) 0,00 h 0,00 h 4,1 km/h (1 Bft)
29.11.2010 01:00 11,2 C -1,5 C 0,0 UV-I 0,0 C 44 % 90 % 0 % 1003,3 hPa 0,0 l/m 1,4 km/h (1 Bft) 0,00 h 0,00 h 1,8 km/h (1 Bft)
29.11.2010 02:00 11,2 C -1,3 C 0,0 UV-I 0,0 C 44 % 89 % 0 % 1003,4 hPa 0,0 l/m 1,7 km/h (1 Bft) 0,00 h 0,00 h 3,0 km/h (1 Bft)
29.11.2010 03:00 11,2 C -1,3 C 0,0 UV-I 0,0 C 44 % 88 % 0 % 1003,2 hPa 0,0 l/m 3,1 km/h (1 Bft) 0,00 h 0,03 h 3,9 km/h (1 Bft)
29.11.2010 04:00 11,1 C -1,3 C 0,0 UV-I 0,0 C 44 % 88 % 0 % 1003,0 hPa 0,0 l/m 3,8 km/h (1 Bft) 0,00 h 0,00 h 5,2 km/h (1 Bft)
29.11.2010 05:00 11,1 C -1,6 C 0,0 UV-I 0,0 C 44 % 88 % 0 % 1003,1 hPa 0,0 l/m 5,2 km/h (1 Bft) 0,00 h 0,03 h 5,7 km/h (1 Bft)
29.11.2010 06:00 11,2 C -1,9 C 0,0 UV-I 0,0 C 44 % 89 % 0 % 1003,6 hPa 0,0 l/m 5,0 km/h (1 Bft) 0,00 h 0,17 h 5,7 km/h (1 Bft)
29.11.2010 07:00 11,2 C -2,0 C 0,0 UV-I 0,0 C 44 % 89 % 0 % 1003,8 hPa 0,0 l/m 3,8 km/h (1 Bft) 0,00 h 0,20 h 4,0 km/h (1 Bft)
29.11.2010 08:00 11,2 C -1,9 C 0,0 UV-I 0,0 C 44 % 89 % 0 % 1004,3 hPa 0,0 l/m 2,6 km/h (1 Bft) 0,00 h 0,07 h 3,0 km/h (1 Bft)
29.11.2010 09:00 11,2 C -1,6 C 0,0 UV-I 0,0 C 44 % 89 % 0 % 1005,0 hPa 0,0 l/m 1,8 km/h (1 Bft) 0,00 h 0,00 h 1,7 km/h (1 Bft)
29.11.2010 10:00 11,2 C -1,4 C 0,0 UV-I 0,0 C 44 % 89 % 0 % 1005,2 hPa 0,0 l/m 0,9 km/h (0 Bft) 0,00 h 0,00 h 1,5 km/h (1 Bft)
29.11.2010 11:00 11,3 C -1,0 C 0,0 UV-I 0,0 C 44 % 88 % 0 % 1005,5 hPa 0,0 l/m 1,5 km/h (1 Bft) 0,00 h 0,00 h 2,5 km/h (1 Bft)
29.11.2010 12:00 11,4 C -1,0 C 0,0 UV-I 0,0 C 44 % 89 % 0 % 1005,5 hPa 0,0 l/m 3,4 km/h (1 Bft) 0,00 h 0,00 h 4,1 km/h (1 Bft)
29.11.2010 13:00 11,4 C -1,0 C 0,0 UV-I 0,0 C 44 % 90 % 0 % 1005,7 hPa 0,0 l/m 6,3 km/h (2 Bft) 0,00 h 0,00 h 7,0 km/h (2 Bft)
29.11.2010 14:00 11,4 C -1,3 C 0,0 UV-I 0,0 C 45 % 91 % 0 % 1005,8 hPa 0,0 l/m 3,8 km/h (1 Bft) 0,00 h 0,97 h 4,1 km/h (1 Bft)
29.11.2010 15:00 11,3 C -1,2 C 0,0 UV-I 0,0 C 45 % 92 % 0 % 1006,0 hPa 0,0 l/m 2,4 km/h (1 Bft) 0,00 h 1,00 h 2,7 km/h (1 Bft)
29.11.2010 16:00 11,2 C -1,2 C 0,0 UV-I 0,0 C 45 % 92 % 0 % 1006,2 hPa 0,0 l/m 0,6 km/h (0 Bft) 0,00 h 1,00 h 0,8 km/h (0 Bft)
29.11.2010 17:00 11,2 C -1,0 C 0,0 UV-I 0,0 C 45 % 93 % 0 % 1006,8 hPa 0,0 l/m 0,1 km/h (0 Bft) 0,00 h 1,00 h 0,1 km/h (0 Bft)
29.11.2010 18:00 11,2 C -0,8 C 0,0 UV-I 0,0 C 46 % 93 % 0 % 1007,5 hPa 0,0 l/m 0,1 km/h (0 Bft) 0,00 h 1,00 h 0,3 km/h (0 Bft)
29.11.2010 19:00 11,3 C -0,7 C 0,0 UV-I 0,0 C 46 % 94 % 0 % 1007,9 hPa 0,0 l/m 0,0 km/h (0 Bft) 0,00 h 1,00 h 0,0 km/h (0 Bft)
29.11.2010 20:00 11,4 C -0,6 C 0,0 UV-I 0,0 C 46 % 94 % 0 % 1008,3 hPa 0,0 l/m 0,0 km/h (0 Bft) 0,00 h 0,73 h 0,0 km/h (0 Bft)
29.11.2010 21:00 11,4 C -0,8 C 0,0 UV-I 0,0 C 46 % 94 % 0 % 1008,9 hPa 0,0 l/m 0,0 km/h (0 Bft) 0,00 h 0,93 h 0,0 km/h (0 Bft)
29.11.2010 22:00 11,4 C -0,9 C 0,0 UV-I 0,0 C 46 % 94 % 0 % 1009,6 hPa 0,0 l/m 0,0 km/h (0 Bft) 0,00 h 0,83 h 0,0 km/h (0 Bft)
29.11.2010 23:00 11,2 C -1,2 C 0,0 UV-I 0,0 C 46 % 93 % 0 % 1009,9 hPa 0,0 l/m 0,0 km/h (0 Bft) 0,00 h 0,40 h 0,0 km/h (0 Bft)
30.11.2010 00:00 11,3 C -1,5 C 0,0 UV-I 0,0 C 46 % 93 % 0 % 1010,3 hPa 0,0 l/m 0,0 km/h (0 Bft) 0,00 h 0,00 h 0,0 km/h (0 Bft)
30.11.2010 01:00 11,2 C -1,5 C 0,0 UV-I 0,0 C 46 % 94 % 0 % 1010,4 hPa 0,0 l/m 0,0 km/h (0 Bft) 0,00 h 0,00 h 0,0 km/h (0 Bft)
30.11.2010 02:00 11,1 C -1,5 C 0,0 UV-I 0,0 C 46 % 94 % 0 % 1010,6 hPa 0,0 l/m 0,0 km/h (0 Bft) 0,00 h 0,00 h 0,0 km/h (0 Bft)
30.11.2010 03:00 11,1 C -1,6 C 0,0 UV-I 0,0 C 46 % 94 % 0 % 1010,7 hPa 0,0 l/m 0,0 km/h (0 Bft) 0,00 h 0,00 h 0,0 km/h (0 Bft)
30.11.2010 04:00 11,1 C -1,7 C 0,0 UV-I 0,0 C 46 % 94 % 0 % 1010,8 hPa 0,0 l/m 0,0 km/h (0 Bft) 0,00 h 0,00 h 0,0 km/h (0 Bft)
30.11.2010 05:00 11,1 C -1,7 C 0,0 UV-I 0,0 C 46 % 94 % 0 % 1010,7 hPa 0,0 l/m 0,0 km/h (0 Bft) 0,00 h 0,00 h 0,0 km/h (0 Bft)
30.11.2010 06:00 11,2 C -1,8 C 0,0 UV-I 0,0 C 46 % 93 % 0 % 1011,0 hPa 0,0 l/m 0,0 km/h (0 Bft) 0,00 h 0,00 h 0,0 km/h (0 Bft)
30.11.2010 07:00 11,1 C -1,7 C 0,0 UV-I 0,0 C 45 % 93 % 0 % 1011,3 hPa 0,0 l/m 0,0 km/h (0 Bft) 0,00 h 0,00 h 0,0 km/h (0 Bft)
30.11.2010 08:00 11,1 C -1,7 C 0,0 UV-I 0,0 C 45 % 93 % 0 % 1011,5 hPa 0,0 l/m 0,0 km/h (0 Bft) 0,00 h 0,00 h 0,0 km/h (0 Bft)
30.11.2010 09:00 11,1 C -1,5 C 0,0 UV-I 0,0 C 45 % 93 % 0 % 1011,6 hPa 0,0 l/m 0,0 km/h (0 Bft) 0,00 h 0,00 h 0,0 km/h (0 Bft)
30.11.2010 10:00 11,2 C -0,9 C 0,0 UV-I 0,0 C 45 % 92 % 0 % 1011,6 hPa 0,0 l/m 0,0 km/h (0 Bft) 0,00 h 0,00 h 0,0 km/h (0 Bft)
30.11.2010 11:00 11,4 C -0,4 C 0,0 UV-I 0,1 C 45 % 91 % 2 % 1011,8 hPa 0,0 l/m 0,0 km/h (0 Bft) 0,00 h 0,57 h 0,0 km/h (0 Bft)
30.11.2010 12:00 11,6 C -0,4 C 0,0 UV-I 0,0 C 45 % 89 % 0 % 1011,3 hPa 0,0 l/m 0,1 km/h (0 Bft) 0,00 h 0,00 h 0,3 km/h (0 Bft)
30.11.2010 13:00 11,6 C -0,7 C 0,0 UV-I 0,0 C 45 % 89 % 0 % 1010,9 hPa 0,0 l/m 2,0 km/h (1 Bft) 0,00 h 0,20 h 3,2 km/h (1 Bft)
30.11.2010 14:00 11,6 C -0,8 C 0,0 UV-I 0,0 C 45 % 88 % 0 % 1010,5 hPa 0,0 l/m 1,8 km/h (1 Bft) 0,00 h 0,00 h 2,6 km/h (1 Bft)
30.11.2010 15:00 11,5 C -1,2 C 0,0 UV-I 0,0 C 45 % 88 % 0 % 1010,3 hPa 0,0 l/m 1,9 km/h (1 Bft) 0,00 h 0,00 h 3,1 km/h (1 Bft)
30.11.2010 16:00 11,4 C -1,4 C 0,0 UV-I 0,0 C 45 % 87 % 0 % 1009,7 hPa 0,0 l/m 3,6 km/h (1 Bft) 0,00 h 0,00 h 5,4 km/h (1 Bft)
30.11.2010 17:00 11,3 C -1,5 C 0,0 UV-I 0,0 C 45 % 87 % 0 % 1009,6 hPa 0,0 l/m 4,4 km/h (1 Bft) 0,00 h 0,00 h 4,7 km/h (1 Bft)
30.11.2010 18:00 11,1 C -1,6 C 0,0 UV-I 0,0 C 45 % 85 % 0 % 1009,5 hPa 0,0 l/m 4,5 km/h (1 Bft) 0,00 h 0,07 h 5,7 km/h (1 Bft)
30.11.2010 19:00 11,1 C -1,7 C 0,0 UV-I 0,0 C 45 % 85 % 0 % 1009,2 hPa 0,0 l/m 5,8 km/h (2 Bft) 0,00 h 0,00 h 6,6 km/h (2 Bft)
30.11.2010 20:00 11,1 C -2,0 C 0,0 UV-I 0,0 C 45 % 84 % 0 % 1009,3 hPa 0,0 l/m 6,2 km/h (2 Bft) 0,00 h 0,00 h 6,6 km/h (2 Bft)
30.11.2010 21:00 11,2 C -2,1 C 0,0 UV-I 0,0 C 45 % 84 % 0 % 1008,7 hPa 0,0 l/m 7,0 km/h (2 Bft) 0,00 h 0,07 h 7,6 km/h (2 Bft)
30.11.2010 22:00 11,2 C -2,3 C 0,0 UV-I 0,0 C 45 % 83 % 0 % 1008,6 hPa 0,0 l/m 7,4 km/h (2 Bft) 0,00 h 0,10 h 7,5 km/h (2 Bft)
30.11.2010 23:00 11,2 C -2,5 C 0,0 UV-I 0,0 C 44 % 83 % 0 % 1008,7 hPa 0,0 l/m 7,5 km/h (2 Bft) 0,00 h 0,27 h 7,5 km/h (2 Bft)
01.12.2010 00:00 11,2 C -2,5 C 0,0 UV-I 0,0 C 44 % 82 % 0 % 1008,0 hPa 0,0 l/m 7,4 km/h (2 Bft) 0,00 h 0,17 h 8,1 km/h (2 Bft)
01.12.2010 01:00 11,1 C -2,8 C 0,0 UV-I 0,0 C 43 % 82 % 0 % 1007,5 hPa 0,0 l/m 7,8 km/h (2 Bft) 0,00 h 0,13 h 8,6 km/h (2 Bft)
01.12.2010 02:00 11,1 C -2,9 C 0,0 UV-I 0,0 C 43 % 82 % 0 % 1006,9 hPa 0,0 l/m 8,4 km/h (2 Bft) 0,00 h 0,10 h 8,9 km/h (2 Bft)
01.12.2010 03:00 11,1 C -3,3 C 0,0 UV-I 0,0 C 42 % 80 % 0 % 1006,5 hPa 0,0 l/m 9,7 km/h (2 Bft) 0,00 h 0,13 h 9,8 km/h (2 Bft)
01.12.2010 04:00 11,0 C -4,1 C 0,0 UV-I 0,0 C 42 % 78 % 0 % 1005,5 hPa 0,0 l/m 11,9 km/h (2 Bft) 0,00 h 0,23 h 13,4 km/h (3 Bft)
01.12.2010 05:00 10,9 C -5,2 C 0,0 UV-I 0,0 C 41 % 77 % 0 % 1004,7 hPa 0,0 l/m 10,7 km/h (2 Bft) 0,00 h 0,00 h 10,9 km/h (2 Bft)
01.12.2010 06:00 10,8 C -5,6 C 0,0 UV-I 0,0 C 40 % 77 % 0 % 1004,2 hPa 0,0 l/m 8,1 km/h (2 Bft) 0,00 h 0,00 h 8,1 km/h (2 Bft)
01.12.2010 07:00 10,6 C -6,1 C 0,0 UV-I 0,0 C 40 % 76 % 0 % 1004,0 hPa 0,0 l/m 6,5 km/h (2 Bft) 0,00 h 0,03 h 7,0 km/h (2 Bft)
01.12.2010 08:00 10,4 C -6,4 C 0,0 UV-I 0,0 C 40 % 76 % 0 % 1003,8 hPa 0,0 l/m 8,1 km/h (2 Bft) 0,00 h 0,47 h 9,5 km/h (2 Bft)
01.12.2010 09:00 10,5 C -6,4 C 0,0 UV-I 0,0 C 39 % 75 % 0 % 1003,8 hPa 0,0 l/m 8,9 km/h (2 Bft) 0,00 h 0,70 h 10,0 km/h (2 Bft)
01.12.2010 10:00 10,5 C -5,9 C 0,0 UV-I 0,0 C 39 % 72 % 0 % 1003,4 hPa 0,0 l/m 10,6 km/h (2 Bft) 0,00 h 0,73 h 11,0 km/h (2 Bft)
01.12.2010 11:00 10,7 C -5,4 C 0,0 UV-I 0,0 C 38 % 71 % 0 % 1003,1 hPa 0,0 l/m 9,1 km/h (2 Bft) 0,00 h 0,73 h 10,6 km/h (2 Bft)
01.12.2010 12:00 10,7 C -5,1 C 0,0 UV-I 0,0 C 38 % 71 % 0 % 1002,7 hPa 0,0 l/m 9,0 km/h (2 Bft) 0,00 h 0,63 h 9,1 km/h (2 Bft)
01.12.2010 13:00 10,7 C -4,9 C 0,0 UV-I 0,0 C 38 % 73 % 0 % 1002,0 hPa 0,0 l/m 10,6 km/h (2 Bft) 0,00 h 0,70 h 11,0 km/h (2 Bft)
01.12.2010 14:00 10,7 C -4,9 C 0,0 UV-I 0,0 C 37 % 75 % 0 % 1001,8 hPa 0,0 l/m 10,1 km/h (2 Bft) 0,00 h 0,73 h 11,2 km/h (2 Bft)
01.12.2010 15:00 10,6 C -5,1 C 0,0 UV-I 0,0 C 37 % 76 % 0 % 1001,4 hPa 0,0 l/m 11,1 km/h (2 Bft) 0,00 h 0,73 h 12,6 km/h (3 Bft)
01.12.2010 16:00 10,4 C -5,4 C 0,0 UV-I 0,0 C 37 % 78 % 0 % 1001,3 hPa 0,0 l/m 12,3 km/h (3 Bft) 0,00 h 0,83 h 11,9 km/h (2 Bft)
01.12.2010 17:00 10,3 C -5,6 C 0,0 UV-I 0,0 C 37 % 80 % 0 % 1001,7 hPa 0,0 l/m 10,0 km/h (2 Bft) 0,00 h 0,73 h 9,1 km/h (2 Bft)
01.12.2010 18:00 9,9 C -5,9 C 0,0 UV-I 0,0 C 37 % 79 % 0 % 1002,2 hPa 0,0 l/m 9,7 km/h (2 Bft) 0,00 h 0,80 h 10,3 km/h (2 Bft)
01.12.2010 19:00 9,6 C -6,1 C 0,0 UV-I 0,0 C 37 % 80 % 0 % 1002,6 hPa 0,0 l/m 8,4 km/h (2 Bft) 0,00 h 0,77 h 8,8 km/h (2 Bft)
01.12.2010 20:00 9,6 C -6,1 C 0,0 UV-I 0,0 C 37 % 79 % 0 % 1002,7 hPa 0,0 l/m 8,4 km/h (2 Bft) 0,00 h 0,90 h 9,0 km/h (2 Bft)
01.12.2010 21:00 9,4 C -6,1 C 0,0 UV-I 0,0 C 36 % 80 % 0 % 1003,0 hPa 0,0 l/m 7,7 km/h (2 Bft) 0,00 h 0,83 h 7,9 km/h (2 Bft)
01.12.2010 22:00 9,4 C -6,1 C 0,0 UV-I 0,0 C 36 % 81 % 0 % 1003,5 hPa 0,0 l/m 5,6 km/h (1 Bft) 0,00 h 0,80 h 6,4 km/h (2 Bft)
01.12.2010 23:00 9,2 C -6,1 C 0,0 UV-I 0,0 C 36 % 81 % 0 % 1003,6 hPa 0,0 l/m 5,7 km/h (1 Bft) 0,00 h 0,80 h 5,7 km/h (1 Bft)
02.12.2010 00:00 9,2 C -6,0 C 0,0 UV-I 0,0 C 36 % 80 % 0 % 1003,8 hPa 0,0 l/m 4,9 km/h (1 Bft) 0,00 h 0,80 h 6,1 km/h (2 Bft)
02.12.2010 01:00 9,2 C -6,0 C 0,0 UV-I 0,0 C 36 % 80 % 0 % 1003,7 hPa 0,0 l/m 5,4 km/h (1 Bft) 0,00 h 0,87 h 6,5 km/h (2 Bft)
02.12.2010 02:00 9,1 C -6,0 C 0,0 UV-I 0,0 C 36 % 79 % 0 % 1003,8 hPa 0,0 l/m 5,5 km/h (1 Bft) 0,00 h 0,93 h 8,2 km/h (2 Bft)
02.12.2010 03:00 9,2 C -6,1 C 0,0 UV-I 0,0 C 36 % 79 % 0 % 1003,9 hPa 0,0 l/m 5,3 km/h (1 Bft) 0,00 h 0,93 h 7,5 km/h (2 Bft)
02.12.2010 04:00 9,2 C -6,1 C 0,0 UV-I 0,0 C 36 % 82 % 0 % 1004,2 hPa 0,0 l/m 4,3 km/h (1 Bft) 0,00 h 0,93 h 4,8 km/h (1 Bft)
02.12.2010 05:00 9,1 C -6,2 C 0,0 UV-I 0,0 C 36 % 83 % 0 % 1004,2 hPa 0,0 l/m 4,5 km/h (1 Bft) 0,00 h 1,00 h 5,1 km/h (1 Bft)
02.12.2010 06:00 8,9 C -6,2 C 0,0 UV-I 0,0 C 36 % 83 % 0 % 1004,3 hPa 0,0 l/m 5,4 km/h (1 Bft) 0,00 h 0,97 h 6,9 km/h (2 Bft)
02.12.2010 07:00 8,2 C -6,3 C 0,0 UV-I 0,0 C 36 % 84 % 0 % 1004,5 hPa 0,0 l/m 3,3 km/h (1 Bft) 0,00 h 1,00 h 3,8 km/h (1 Bft)
02.12.2010 08:00 8,0 C -6,5 C 0,0 UV-I 0,0 C 37 % 86 % 0 % 1004,7 hPa 0,0 l/m 1,3 km/h (1 Bft) 0,00 h 1,00 h 1,4 km/h (1 Bft)
02.12.2010 09:00 8,0 C -6,5 C 0,0 UV-I 0,0 C 37 % 88 % 0 % 1005,0 hPa 0,0 l/m 1,4 km/h (1 Bft) 0,00 h 1,00 h 1,6 km/h (1 Bft)
02.12.2010 10:00 8,0 C -6,5 C 0,0 UV-I 0,0 C 38 % 88 % 0 % 1005,4 hPa 0,0 l/m 0,9 km/h (0 Bft) 0,00 h 1,00 h 1,8 km/h (1 Bft)
02.12.2010 11:00 8,0 C -6,3 C 0,0 UV-I 0,0 C 38 % 89 % 0 % 1005,4 hPa 0,0 l/m 1,4 km/h (1 Bft) 0,00 h 1,00 h 2,2 km/h (1 Bft)
02.12.2010 12:00 7,8 C -5,9 C 0,0 UV-I 0,1 C 38 % 89 % 2 % 1005,6 hPa 0,0 l/m 1,6 km/h (1 Bft) 0,00 h 1,00 h 2,5 km/h (1 Bft)
02.12.2010 13:00 8,0 C -5,6 C 0,0 UV-I 0,2 C 38 % 89 % 7 % 1005,3 hPa 0,0 l/m 1,8 km/h (1 Bft) 0,00 h 1,00 h 2,2 km/h (1 Bft)
02.12.2010 14:00 8,0 C -5,5 C 0,0 UV-I 0,3 C 39 % 89 % 8 % 1005,1 hPa 0,0 l/m 0,2 km/h (0 Bft) 0,00 h 1,00 h 0,3 km/h (0 Bft)
02.12.2010 15:00 7,9 C -5,4 C 0,0 UV-I 0,1 C 39 % 89 % 4 % 1005,6 hPa 0,0 l/m 0,2 km/h (0 Bft) 0,00 h 1,00 h 0,2 km/h (0 Bft)
02.12.2010 16:00 7,8 C -5,6 C 0,0 UV-I 0,0 C 39 % 89 % 0 % 1008,4 hPa 0,0 l/m 0,1 km/h (0 Bft) 0,00 h 0,93 h 0,0 km/h (0 Bft)
02.12.2010 17:00 7,5 C -6,5 C 0,0 UV-I 0,0 C 39 % 89 % 0 % 1008,3 hPa 0,0 l/m 0,0 km/h (0 Bft) 0,00 h 0,97 h 0,0 km/h (0 Bft)
02.12.2010 18:00 7,2 C -7,2 C 0,0 UV-I 0,0 C 39 % 89 % 0 % 1007,9 hPa 0,0 l/m 0,0 km/h (0 Bft) 0,00 h 1,00 h 0,0 km/h (0 Bft)
02.12.2010 19:00 7,0 C -7,3 C 0,0 UV-I 0,0 C 39 % 90 % 0 % 1008,1 hPa 0,0 l/m 0,0 km/h (0 Bft) 0,00 h 0,83 h 0,0 km/h (0 Bft)
02.12.2010 20:00 6,9 C -7,2 C 0,0 UV-I 0,0 C 39 % 90 % 0 % 1008,7 hPa 0,0 l/m 0,0 km/h (0 Bft) 0,00 h 0,97 h 0,0 km/h (0 Bft)
02.12.2010 21:00 6,8 C -7,0 C 0,0 UV-I 0,0 C 39 % 90 % 0 % 1009,2 hPa 0,0 l/m 0,0 km/h (0 Bft) 0,00 h 0,57 h 0,1 km/h (0 Bft)
02.12.2010 22:00 6,8 C -6,6 C 0,0 UV-I 0,0 C 39 % 91 % 0 % 1009,4 hPa 0,0 l/m 0,0 km/h (0 Bft) 0,00 h 0,67 h 0,0 km/h (0 Bft)
02.12.2010 23:00 6,8 C -6,7 C 0,0 UV-I 0,0 C 40 % 90 % 0 % 1009,2 hPa 0,0 l/m 0,0 km/h (0 Bft) 0,00 h 0,57 h 0,0 km/h (0 Bft)
03.12.2010 00:00 6,8 C -6,6 C 0,0 UV-I 0,0 C 40 % 91 % 0 % 1009,2 hPa 0,0 l/m 0,0 km/h (0 Bft) 0,00 h 0,67 h 0,0 km/h (0 Bft)
03.12.2010 01:00 6,8 C -6,7 C 0,0 UV-I 0,0 C 40 % 91 % 0 % 1009,0 hPa 0,0 l/m 0,1 km/h (0 Bft) 0,00 h 0,63 h 0,1 km/h (0 Bft)
03.12.2010 02:00 6,8 C -6,4 C 0,0 UV-I 0,0 C 40 % 91 % 0 % 1009,1 hPa 0,0 l/m 0,0 km/h (0 Bft) 0,00 h 0,87 h 0,0 km/h (0 Bft)
03.12.2010 03:00 6,7 C -6,8 C 0,0 UV-I 0,0 C 40 % 91 % 0 % 1009,2 hPa 0,0 l/m 0,7 km/h (0 Bft) 0,00 h 0,87 h 0,7 km/h (0 Bft)
03.12.2010 04:00 6,5 C -7,3 C 0,0 UV-I 0,0 C 40 % 91 % 0 % 1008,9 hPa 0,0 l/m 0,0 km/h (0 Bft) 0,00 h 0,80 h 0,0 km/h (0 Bft)
03.12.2010 05:00 6,3 C -7,8 C 0,0 UV-I 0,0 C 39 % 91 % 0 % 1008,8 hPa 0,0 l/m 0,0 km/h (0 Bft) 0,00 h 0,73 h 0,0 km/h (0 Bft)
03.12.2010 06:00 6,3 C -8,0 C 0,0 UV-I 0,0 C 39 % 91 % 0 % 1008,8 hPa 0,0 l/m 0,0 km/h (0 Bft) 0,00 h 0,30 h 0,0 km/h (0 Bft)
03.12.2010 07:00 6,7 C -8,2 C 0,0 UV-I 0,0 C 39 % 91 % 0 % 1008,8 hPa 0,0 l/m 0,0 km/h (0 Bft) 0,00 h 0,00 h 0,0 km/h (0 Bft)
03.12.2010 08:00 6,9 C -8,4 C 0,0 UV-I 0,0 C 39 % 91 % 0 % 1009,5 hPa 0,0 l/m 0,0 km/h (0 Bft) 0,00 h 0,00 h 0,0 km/h (0 Bft)
03.12.2010 09:00 7,1 C -8,1 C 0,0 UV-I 0,0 C 39 % 92 % 0 % 1010,0 hPa 0,0 l/m 0,0 km/h (0 Bft) 0,00 h 0,00 h 0,0 km/h (0 Bft)
03.12.2010 10:00 7,3 C -6,6 C 0,0 UV-I 2,2 C 39 % 92 % 61 % 1010,0 hPa 0,0 l/m 0,2 km/h (0 Bft) 0,63 h 0,00 h 0,5 km/h (0 Bft)
03.12.2010 11:00 7,7 C -4,3 C 0,0 UV-I 4,3 C 39 % 92 % 92 % 1011,0 hPa 0,0 l/m 0,9 km/h (0 Bft) 0,83 h 0,00 h 1,8 km/h (1 Bft)
03.12.2010 12:00 8,2 C -2,3 C 0,1 UV-I 5,0 C 40 % 90 % 100 % 1011,0 hPa 0,0 l/m 1,7 km/h (1 Bft) 1,00 h 0,00 h 2,0 km/h (1 Bft)
03.12.2010 13:00 8,6 C -2,3 C 0,9 UV-I 1,5 C 39 % 87 % 42 % 1011,1 hPa 0,0 l/m 1,0 km/h (0 Bft) 0,03 h 0,00 h 0,6 km/h (0 Bft)
03.12.2010 14:00 8,9 C -2,8 C 0,7 UV-I 0,7 C 39 % 87 % 21 % 1011,2 hPa 0,0 l/m 0,1 km/h (0 Bft) 0,00 h 0,03 h 0,0 km/h (0 Bft)
03.12.2010 15:00 8,9 C -2,9 C 0,1 UV-I 0,0 C 39 % 87 % 0 % 1011,4 hPa 0,0 l/m 0,0 km/h (0 Bft) 0,00 h 0,13 h 0,0 km/h (0 Bft)
03.12.2010 16:00 8,6 C -3,2 C 0,0 UV-I 0,0 C 39 % 87 % 0 % 1011,5 hPa 0,0 l/m 0,0 km/h (0 Bft) 0,00 h 0,03 h 0,0 km/h (0 Bft)
03.12.2010 17:00 8,3 C -4,3 C 0,0 UV-I 0,0 C 40 % 87 % 0 % 1011,6 hPa 0,0 l/m 0,1 km/h (0 Bft) 0,00 h 0,17 h 0,1 km/h (0 Bft)
03.12.2010 18:00 8,0 C -5,2 C 0,0 UV-I 0,0 C 40 % 89 % 0 % 1012,2 hPa 0,0 l/m 0,0 km/h (0 Bft) 0,00 h 0,20 h 0,0 km/h (0 Bft)
03.12.2010 19:00 8,0 C -4,9 C 0,0 UV-I 0,0 C 41 % 90 % 0 % 1012,5 hPa 0,0 l/m 0,0 km/h (0 Bft) 0,00 h 0,17 h 0,2 km/h (0 Bft)
03.12.2010 20:00 7,9 C -4,8 C 0,0 UV-I 0,0 C 41 % 90 % 0 % 1012,5 hPa 0,0 l/m 0,4 km/h (0 Bft) 0,00 h 0,10 h 0,6 km/h (0 Bft)
03.12.2010 21:00 7,9 C -4,8 C 0,0 UV-I 0,0 C 41 % 90 % 0 % 1012,5 hPa 0,0 l/m 0,9 km/h (0 Bft) 0,00 h 0,07 h 1,6 km/h (1 Bft)
03.12.2010 22:00 7,8 C -4,8 C 0,0 UV-I 0,0 C 41 % 90 % 0 % 1012,9 hPa 0,0 l/m 1,9 km/h (1 Bft) 0,00 h 0,07 h 3,6 km/h (1 Bft)
03.12.2010 23:00 7,8 C -4,8 C 0,0 UV-I 0,0 C 41 % 90 % 0 % 1014,1 hPa 0,0 l/m 2,5 km/h (1 Bft) 0,00 h 0,03 h 3,7 km/h (1 Bft)
04.12.2010 00:00 7,8 C -4,6 C 0,0 UV-I 0,0 C 41 % 90 % 0 % 1014,0 hPa 0,0 l/m 1,6 km/h (1 Bft) 0,00 h 0,07 h 2,8 km/h (1 Bft)
04.12.2010 01:00 7,8 C -4,4 C 0,0 UV-I 0,0 C 41 % 89 % 0 % 1014,4 hPa 0,0 l/m 1,9 km/h (1 Bft) 0,00 h 0,17 h 3,1 km/h (1 Bft)
04.12.2010 02:00 7,9 C -5,3 C 0,0 UV-I 0,0 C 41 % 89 % 0 % 1014,8 hPa 0,0 l/m 0,7 km/h (0 Bft) 0,00 h 0,13 h 1,8 km/h (1 Bft)
04.12.2010 03:00 7,8 C -6,3 C 0,0 UV-I 0,0 C 40 % 89 % 0 % 1014,8 hPa 0,0 l/m 3,2 km/h (1 Bft) 0,00 h 0,17 h 4,2 km/h (1 Bft)
04.12.2010 04:00 7,8 C -7,0 C 0,0 UV-I 0,0 C 40 % 89 % 0 % 1015,0 hPa 0,0 l/m 1,8 km/h (1 Bft) 0,00 h 0,17 h 2,4 km/h (1 Bft)
04.12.2010 05:00 7,6 C -7,6 C 0,0 UV-I 0,0 C 40 % 89 % 0 % 1015,0 hPa 0,0 l/m 2,4 km/h (1 Bft) 0,00 h 0,17 h 4,0 km/h (1 Bft)
04.12.2010 06:00 7,5 C -8,0 C 0,0 UV-I 0,0 C 39 % 90 % 0 % 1015,0 hPa 0,0 l/m 3,7 km/h (1 Bft) 0,00 h 0,17 h 5,8 km/h (2 Bft)
04.12.2010 07:00 7,4 C -7,8 C 0,0 UV-I 0,0 C 39 % 90 % 0 % 1015,7 hPa 0,0 l/m 5,2 km/h (1 Bft) 0,00 h 0,17 h 6,6 km/h (2 Bft)
04.12.2010 08:00 7,4 C -7,7 C 0,0 UV-I 0,0 C 39 % 90 % 0 % 1015,9 hPa 0,0 l/m 5,0 km/h (1 Bft) 0,00 h 0,10 h 6,6 km/h (2 Bft)
04.12.2010 09:00 7,4 C -7,0 C 0,0 UV-I 0,4 C 39 % 90 % 12 % 1015,8 hPa 0,0 l/m 6,6 km/h (2 Bft) 0,10 h 0,03 h 7,1 km/h (2 Bft)
04.12.2010 10:00 7,5 C -5,2 C 0,0 UV-I 1,5 C 39 % 90 % 43 % 1015,3 hPa 9,4 l/m 8,3 km/h (2 Bft) 0,33 h 0,07 h 9,2 km/h (2 Bft)
04.12.2010 11:00 7,8 C -3,2 C 0,0 UV-I 2,2 C 39 % 88 % 54 % 1015,3 hPa 0,0 l/m 5,9 km/h (2 Bft) 0,47 h 0,00 h 7,6 km/h (2 Bft)
04.12.2010 12:00 8,1 C -1,3 C 0,0 UV-I 0,0 C 40 % 84 % 0 % 1014,7 hPa 0,0 l/m 10,2 km/h (2 Bft) 0,00 h 0,00 h 12,0 km/h (2 Bft)
04.12.2010 13:00 8,4 C -0,4 C 0,7 UV-I 0,0 C 40 % 80 % 0 % 1013,7 hPa 0,0 l/m 12,8 km/h (3 Bft) 0,00 h 0,00 h 14,5 km/h (3 Bft)
04.12.2010 14:00 8,4 C -0,2 C 0,2 UV-I 0,0 C 40 % 77 % 0 % 1013,3 hPa 0,0 l/m 13,5 km/h (3 Bft) 0,00 h 0,00 h 16,0 km/h (3 Bft)
04.12.2010 15:00 8,4 C -0,4 C 0,0 UV-I 0,0 C 40 % 78 % 0 % 1012,8 hPa 0,0 l/m 13,1 km/h (3 Bft) 0,00 h 0,33 h 14,5 km/h (3 Bft)
04.12.2010 16:00 8,4 C -0,8 C 0,0 UV-I 0,0 C 41 % 81 % 0 % 1012,8 hPa 0,0 l/m 11,6 km/h (2 Bft) 0,00 h 0,10 h 11,7 km/h (2 Bft)
04.12.2010 17:00 8,4 C -0,5 C 0,0 UV-I 0,0 C 42 % 82 % 0 % 1012,9 hPa 0,0 l/m 9,7 km/h (2 Bft) 0,00 h 0,03 h 10,1 km/h (2 Bft)
04.12.2010 18:00 8,4 C 0,0 C 0,0 UV-I 0,0 C 42 % 81 % 0 % 1012,3 hPa 0,0 l/m 9,8 km/h (2 Bft) 0,00 h 0,03 h 10,5 km/h (2 Bft)
04.12.2010 19:00 8,5 C 0,5 C 0,0 UV-I 0,0 C 42 % 80 % 0 % 1011,8 hPa 0,0 l/m 9,2 km/h (2 Bft) 0,00 h 0,07 h 9,7 km/h (2 Bft)
04.12.2010 20:00 8,7 C 0,6 C 0,0 UV-I 0,0 C 43 % 81 % 0 % 1011,3 hPa 0,0 l/m 9,8 km/h (2 Bft) 0,00 h 0,33 h 10,1 km/h (2 Bft)
04.12.2010 21:00 8,8 C 0,1 C 0,0 UV-I 0,0 C 44 % 87 % 0 % 1010,6 hPa 0,0 l/m 10,1 km/h (2 Bft) 0,00 h 1,00 h 12,5 km/h (3 Bft)
04.12.2010 22:00 8,8 C -0,0 C 0,0 UV-I 0,0 C 46 % 90 % 0 % 1010,0 hPa 0,0 l/m 8,0 km/h (2 Bft) 0,00 h 1,00 h 8,6 km/h (2 Bft)
04.12.2010 23:00 8,9 C 0,3 C 0,0 UV-I 0,0 C 46 % 91 % 0 % 1009,0 hPa 0,0 l/m 7,3 km/h (2 Bft) 0,00 h 0,40 h 7,9 km/h (2 Bft)
05.12.2010 00:00 9,1 C 1,6 C 0,0 UV-I 0,0 C 47 % 90 % 0 % 1008,1 hPa 0,0 l/m 6,6 km/h (2 Bft) 0,00 h 1,00 h 9,3 km/h (2 Bft)
05.12.2010 01:00 9,2 C 2,4 C 0,0 UV-I 0,0 C 49 % 90 % 0 % 1007,3 hPa 0,8 l/m 5,7 km/h (1 Bft) 0,00 h 1,00 h 6,5 km/h (2 Bft)
05.12.2010 02:00 9,2 C 2,7 C 0,0 UV-I 0,0 C 50 % 91 % 0 % 1006,2 hPa 1,5 l/m 5,3 km/h (1 Bft) 0,00 h 1,00 h 6,3 km/h (2 Bft)
05.12.2010 03:00 9,3 C 3,2 C 0,0 UV-I 0,0 C 51 % 91 % 0 % 1005,7 hPa 1,3 l/m 9,6 km/h (2 Bft) 0,00 h 1,00 h 13,9 km/h (3 Bft)
05.12.2010 04:00 9,3 C 3,4 C 0,0 UV-I 0,0 C 52 % 91 % 0 % 1005,1 hPa 0,7 l/m 13,8 km/h (3 Bft) 0,00 h 1,00 h 16,0 km/h (3 Bft)
05.12.2010 05:00 9,4 C 3,4 C 0,0 UV-I 0,0 C 53 % 91 % 0 % 1004,6 hPa 0,4 l/m 14,8 km/h (3 Bft) 0,00 h 1,00 h 17,5 km/h (3 Bft)
05.12.2010 06:00 9,4 C 3,2 C 0,0 UV-I 0,0 C 54 % 91 % 0 % 1004,1 hPa 0,4 l/m 13,1 km/h (3 Bft) 0,00 h 1,00 h 14,8 km/h (3 Bft)
05.12.2010 07:00 9,4 C 3,1 C 0,0 UV-I 0,0 C 54 % 91 % 0 % 1003,3 hPa 0,5 l/m 11,5 km/h (2 Bft) 0,00 h 1,00 h 13,5 km/h (3 Bft)
05.12.2010 08:00 9,3 C 2,9 C 0,0 UV-I 0,0 C 54 % 92 % 0 % 1003,1 hPa 0,8 l/m 9,2 km/h (2 Bft) 0,00 h 1,00 h 11,9 km/h (2 Bft)
05.12.2010 09:00 9,4 C 2,6 C 0,0 UV-I 0,0 C 55 % 92 % 0 % 1003,1 hPa 0,5 l/m 9,0 km/h (2 Bft) 0,00 h 1,00 h 9,3 km/h (2 Bft)
05.12.2010 10:00 9,4 C 2,1 C 0,0 UV-I 0,0 C 55 % 92 % 0 % 1003,0 hPa 0,8 l/m 8,1 km/h (2 Bft) 0,00 h 0,93 h 8,8 km/h (2 Bft)
05.12.2010 11:00 9,5 C 1,6 C 0,0 UV-I 0,0 C 54 % 93 % 0 % 1003,0 hPa 0,5 l/m 7,0 km/h (2 Bft) 0,00 h 1,00 h 9,3 km/h (2 Bft)
05.12.2010 12:00 9,6 C 1,6 C 0,0 UV-I 0,0 C 54 % 93 % 0 % 1002,8 hPa 0,4 l/m 6,5 km/h (2 Bft) 0,00 h 1,00 h 8,1 km/h (2 Bft)
05.12.2010 13:00 9,6 C 1,5 C 0,0 UV-I 0,0 C 54 % 93 % 0 % 1002,6 hPa 0,4 l/m 5,4 km/h (1 Bft) 0,00 h 0,97 h 6,0 km/h (2 Bft)
05.12.2010 14:00 9,6 C 1,5 C 0,0 UV-I 0,0 C 54 % 94 % 0 % 1002,5 hPa 0,3 l/m 4,6 km/h (1 Bft) 0,00 h 0,87 h 6,6 km/h (2 Bft)
05.12.2010 15:00 9,6 C 1,4 C 0,0 UV-I 0,0 C 54 % 94 % 0 % 1002,3 hPa 0,3 l/m 3,4 km/h (1 Bft) 0,00 h 1,00 h 4,8 km/h (1 Bft)
05.12.2010 16:00 9,6 C 1,3 C 0,0 UV-I 0,0 C 54 % 94 % 0 % 1002,7 hPa 0,0 l/m 3,2 km/h (1 Bft) 0,00 h 0,77 h 4,1 km/h (1 Bft)
05.12.2010 17:00 9,6 C 1,4 C 0,0 UV-I 0,0 C 54 % 94 % 0 % 1003,0 hPa 0,0 l/m 3,7 km/h (1 Bft) 0,00 h 0,10 h 4,6 km/h (1 Bft)
05.12.2010 18:00 9,6 C 1,4 C 0,0 UV-I 0,0 C 54 % 94 % 0 % 1003,0 hPa 0,0 l/m 1,4 km/h (1 Bft) 0,00 h 0,00 h 2,3 km/h (1 Bft)
05.12.2010 19:00 9,6 C 1,3 C 0,0 UV-I 0,0 C 54 % 94 % 0 % 1003,3 hPa 0,0 l/m 0,1 km/h (0 Bft) 0,00 h 0,00 h 0,1 km/h (0 Bft)
05.12.2010 20:00 9,8 C 1,3 C 0,0 UV-I 0,0 C 54 % 94 % 0 % 1003,7 hPa 0,0 l/m 0,8 km/h (0 Bft) 0,00 h 0,00 h 0,7 km/h (0 Bft)
05.12.2010 21:00 9,8 C 1,3 C 0,0 UV-I 0,0 C 54 % 94 % 0 % 1003,9 hPa 0,0 l/m 0,2 km/h (0 Bft) 0,00 h 0,00 h 0,3 km/h (0 Bft)
05.12.2010 22:00 9,9 C 1,3 C 0,0 UV-I 0,0 C 54 % 94 % 0 % 1003,9 hPa 0,0 l/m 0,2 km/h (0 Bft) 0,00 h 0,00 h 0,3 km/h (0 Bft)
05.12.2010 23:00 9,8 C 1,2 C 0,0 UV-I 0,0 C 53 % 94 % 0 % 1003,8 hPa 0,0 l/m 0,6 km/h (0 Bft) 0,00 h 0,00 h 0,2 km/h (0 Bft)
Min-Datum _ 03.12.10 03.12.10 29.11.10 29.11.10 01.12.10 01.12.10 29.11.10 01.12.10 - 29.11.10 - - 29.11.10
_ Min-Zeit 06:16 08:30 00:00 00:00 20:30 12:00 00:00 16:06 - 15:58 - - 00:12
Minimum _ 6,2 C -8,5 C 0,0 UV-I 0,0 C 36 % 70 % 0 % 1001,1 hPa - 0,0 km/h (0 Bft) - - 0,0 km/h (0 Bft)
Max-Datum _ 30.11.10 05.12.10 03.12.10 03.12.10 05.12.10 29.11.10 03.12.10 04.12.10 04.12.10 05.12.10 03.12.10 29.11.10 05.12.10
_ Max-Zeit 11:58 03:46 13:08 11:28 08:26 19:04 10:36 08:06 10:42 05:58 10:22 03:06 04:58
Maximum _ 11,6 C 3,5 C 0,9 UV-I 6,3 C 55 % 94 % 100 % 1015,9 hPa 9,4 l/m 16,9 km/h
S (3 Bft)
0,03 h 0,03 h 43,5 km/h
O-SO (6 Bft)
Durchschnitt _ 9,4 C -3,0 C 0,0 UV-I 0,1 C 43 % 88 % 3 % 1007,7 hPa #18,8 l/m 4,1 km/h (1 Bft) #3:24 h #72:36 h 4,8 km/h (1 Bft)
© 2012 W. Hausmann